Regional Weather Roundup
Issued by NWS Newport/Morehead, NC

Current Version | Previous Version | Graphics & Text | Print | Product List | Glossary Off
Versions: 1 2 3 4 5 6 7 8 9 10 11 12 13 14 15 16 17 18 19 20 21 22 23 24 25 26 27 28 29 30 31 32 33 34 35 36 37 38 39 40 41 42 43 44 45 46 47 48 49 50
000 ASUS42 KMHX 192214 RWRMHX WEATHER ROUNDUP FOR EASTERN NORTH CAROLINA NATIONAL WEATHER SERVICE NEWPORT/MOREHEAD CITY NC 600 PM EDT TUE SEP 19 2017 NOTE: "FAIR" INDICATES FEW OR NO CLOUDS BELOW 12,000 FEET WITH NO SIGNIFICANT WEATHER AND/OR OBSTRUCTIONS TO VISIBILITY NCZ015>017-031-032-045>047-102-103-192300- NORTH COAST CITY SKY/WX TMP DP RH WIND PRES REMARKS EDENTON CLOUDY 75 69 84 CALM 29.89R ELIZABETH CITY CLOUDY 74 69 85 NW15 29.87R KITTY HAWK CLOUDY 71 67 87 NW13G25 29.83S MANTEO CLOUDY 71 67 89 N13G23 29.85S $$ NCZ045>047-081-094-103-104-192300- CENTRAL COAST CITY SKY/WX TMP DP RH WIND PRES REMARKS FRISCO PTSUNNY 75 69 81 NW13G22 29.85S $$ NCZ095-097-098-100-101-192300- SOUTHERN COAST CITY SKY/WX TMP DP RH WIND PRES REMARKS BEAUFORT MOSUNNY 81 68 64 N12 29.88R CEDAR ISLAND NOT AVBL JACKSONVILLE SUNNY 84 66 54 N10 29.89R PINEY ISLAND N/A N/A N/A N/A N9 29.87S WILMINGTON SUNNY 85 64 49 NW10 29.90R $$ NCZ011>013-027>030-043-044-078>080-089-090>093-098-192300- COASTAL PLAIN CITY SKY/WX TMP DP RH WIND PRES REMARKS AHOSKIE N/A 77 67 69 NW3 29.89S CLINTON SUNNY 84 65 52 NW3 29.91R ELIZABETHTOWN NOT AVBL GOLDSBORO SUNNY 84 65 52 N7 29.89R GREENVILLE SUNNY 81 64 57 NW5 29.92R HAVELOCK NOT AVBL KENANSVILLE MOSUNNY 82 66 57 NW6 29.90S KINSTON SUNNY 82 64 54 N6 29.91R NEW BERN MOSUNNY 82 66 58 NW6 29.89S RICHLANDS SUNNY 82 66 58 NW5 29.90R ROCKY MOUNT SUNNY 82 66 58 N8 29.91R WASHINGTON SUNNY 81 65 58 NW9 29.89R WHITEVILLE SUNNY 84 64 50 CALM 29.91R $$ AMZ130-135-150-152-154-156-158-170-250-252-270-ANZ085-086-088-633-658-670-192300- MARINE OBSERVATIONS STATION/POSITION TIME TEMP WIND PRES WAVE SWELL AIR SEA DIR/SP/G HT/PER HT/PER (UTC) (F) (DEG/KT/KT) (MB) (FT/S) (FT/S) CHESAPEAKE LIGHT NOT AVBL 64 E VA BEACH 2150 70 71 320/ 27/ 35 1006.9 16/11 13/11 DUCK 2148 72 75 330/ 20/ 26 1009.6 2 E DUCK 2130 75 N/A 11/11 7/11 OREGON INLET 2142 72 74 310/ 17/ 23 1010.1 13E OREGON INLT 2148 74 N/A 14/13 13/13 HATTERAS CG 2148 74 76 320/ 23/ 25 1010.9 DIAMOND BUOY 2150 75 74 330/ 21/ 27 1010.1 9/13 5/13 CAPE LOOKOUT 2200 80 330/ 12/ 14 1011.4 BEAUFORT LAB 2148 82 75 330/ 8/ 12 1011.2 30 SE NEW RVR IN 2108 81 320/ 10/ 14 1011.6 30 SE NEW RVR IN NOT AVBL 27 SE WRIGHTSVLE 2108 81 80 280/ 6/ 10 1012.2 5 SE WRIGHTSVLE 2108 82 79 360/ 10/ 14 1011.9 225 S CAPE HAT 2150 80 80 310/ 12/ 14 1012.8 9/10 8/10 41 SE CHARLESTON 2150 80 83 260/ 4/ 6 1013.1 4/12 5/12 $$

USA.gov is the U.S. government's official web portal to all federal, state and local government web resources and services.